�������l�o���
Date,Time,MP-1(��Sv/h),MP-2(��Sv/h),MP-3(��Sv/h),MP-4(��Sv/h),MP-5(��Sv/h),MP-6(��Sv/h),MP-7(��Sv/h),MP-8(��Sv/h),����,����(m/s),���J
2018/03/22,00:00,0.821,1.361,0.855,1.593,1.074,0.471,0.829,0.801,��,6.8,�L
2018/03/22,00:10,0.821,1.356,0.857,1.592,1.073,0.470,0.828,0.800,���쓌,6.5,�L
2018/03/22,00:20,0.819,1.355,0.858,1.592,1.072,0.472,0.829,0.801,���쓌,7.4,�L
2018/03/22,00:30,0.820,1.357,0.858,1.592,1.074,0.473,0.826,0.799,���쓌,7.7,�L
2018/03/22,00:40,0.820,1.354,0.857,1.592,1.071,0.471,0.827,0.799,���쓌,6.6,�L
2018/03/22,00:50,0.819,1.355,0.856,1.591,1.073,0.472,0.827,0.799,���쓌,8.3,�L
2018/03/22,01:00,0.821,1.358,0.860,1.590,1.071,0.472,0.829,0.801,���쓌,8.2,�L
2018/03/22,01:10,0.821,1.357,0.856,1.590,1.073,0.473,0.827,0.802,���쓌,7.7,�L
2018/03/22,01:20,0.822,1.357,0.855,1.592,1.074,0.472,0.829,0.800,���쓌,8.7,�L
2018/03/22,01:30,0.820,1.360,0.857,1.591,1.074,0.473,0.828,0.802,���쓌,8.4,�L
2018/03/22,01:40,0.820,1.357,0.858,1.594,1.074,0.471,0.829,0.800,���쓌,8.5,�L
2018/03/22,01:50,0.821,1.361,0.857,1.594,1.079,0.471,0.830,0.802,���쓌,9.3,�L
2018/03/22,02:00,0.822,1.360,0.859,1.593,1.075,0.474,0.828,0.801,��,9.2,�L
2018/03/22,02:10,0.824,1.364,0.858,1.594,1.077,0.475,0.828,0.803,���쓌,9.3,�L
2018/03/22,02:20,0.822,1.361,0.858,1.594,1.076,0.473,0.830,0.802,���쓌,9.8,�L
2018/03/22,02:30,0.822,1.359,0.859,1.596,1.074,0.475,0.830,0.801,��,10.2,�L
2018/03/22,02:40,0.821,1.359,0.858,1.592,1.075,0.474,0.830,0.800,��,10.5,�L
2018/03/22,02:50,0.822,1.357,0.859,1.592,1.073,0.475,0.829,0.801,��,11.3,�L
2018/03/22,03:00,0.823,1.356,0.859,1.589,1.071,0.474,0.828,0.801,��,10.5,�L
2018/03/22,03:10,0.821,1.358,0.859,1.589,1.070,0.475,0.828,0.800,��,11.1,�L
2018/03/22,03:20,0.822,1.357,0.858,1.589,1.069,0.473,0.829,0.800,��,11.3,�L
2018/03/22,03:30,0.821,1.358,0.858,1.590,1.069,0.473,0.829,0.801,��,11.6,�L
2018/03/22,03:40,0.823,1.357,0.857,1.594,1.069,0.475,0.830,0.803,��,10.6,�L
2018/03/22,03:50,0.822,1.357,0.859,1.589,1.070,0.475,0.828,0.800,��,9.6,�L
2018/03/22,04:00,0.821,1.357,0.855,1.589,1.068,0.474,0.830,0.800,���k��,9.4,�L
2018/03/22,04:10,0.819,1.352,0.855,1.589,1.067,0.475,0.828,0.800,���k��,9.8,�L
2018/03/22,04:20,0.818,1.350,0.855,1.583,1.067,0.474,0.826,0.799,���k��,10.6,�L
2018/03/22,04:30,0.820,1.354,0.856,1.587,1.067,0.475,0.826,0.799,���k��,11.6,�L
2018/03/22,04:40,0.817,1.351,0.857,1.583,1.065,0.474,0.827,0.800,���k��,10.9,�L
2018/03/22,04:50,0.817,1.347,0.853,1.580,1.063,0.475,0.825,0.801,���k��,11.1,�L
2018/03/22,05:00,0.817,1.345,0.854,1.577,1.059,0.473,0.825,0.798,���k��,10.9,�L
2018/03/22,05:10,0.814,1.341,0.853,1.576,1.058,0.473,0.823,0.796,���k��,11.0,�L
2018/03/22,05:20,0.813,1.342,0.850,1.570,1.054,0.474,0.822,0.797,�k��,11.1,�L
2018/03/22,05:30,0.815,1.337,0.851,1.570,1.056,0.472,0.820,0.796,���k��,11.3,�L
2018/03/22,05:40,0.813,1.339,0.853,1.570,1.056,0.474,0.821,0.797,�k��,10.7,�L
2018/03/22,05:50,0.809,1.333,0.847,1.566,1.050,0.472,0.821,0.795,�k��,10.7,�L
2018/03/22,06:00,0.812,1.333,0.849,1.564,1.050,0.472,0.821,0.796,���k��,10.5,�L
2018/03/22,06:10,0.811,1.336,0.849,1.569,1.052,0.471,0.822,0.795,���k��,10.8,�L
2018/03/22,06:20,0.811,1.333,0.848,1.566,1.051,0.472,0.819,0.796,�k��,11.8,�L
2018/03/22,06:30,0.810,1.332,0.846,1.563,1.048,0.471,0.819,0.794,�k��,10.6,�L
2018/03/22,06:40,0.809,1.326,0.846,1.560,1.046,0.472,0.820,0.795,�k��,11.3,�L
2018/03/22,06:50,0.809,1.331,0.845,1.562,1.044,0.470,0.819,0.794,�k��,11.6,�L
2018/03/22,07:00,0.811,1.332,0.846,1.564,1.047,0.472,0.818,0.796,�k��,12.7,�L
2018/03/22,07:10,0.813,1.332,0.846,1.561,1.044,0.471,0.820,0.795,�k��,12.1,�L
2018/03/22,07:20,0.810,1.328,0.844,1.556,1.042,0.470,0.819,0.793,�k��,10.9,�L
2018/03/22,07:30,0.807,1.321,0.839,1.553,1.036,0.468,0.817,0.792,�k��,11.8,�L
2018/03/22,07:40,0.807,1.321,0.841,1.551,1.035,0.469,0.815,0.793,�k��,11.3,�L
2018/03/22,07:50,0.806,1.320,0.841,1.550,1.032,0.470,0.817,0.792,�k��,11.9,�L
2018/03/22,08:00,0.806,1.324,0.840,1.555,1.035,0.470,0.819,0.793,�k��,12.4,�L
2018/03/22,08:10,0.806,1.322,0.839,1.553,1.035,0.469,0.817,0.792,�k�k��,13.0,�L
2018/03/22,08:20,0.806,1.319,0.838,1.547,1.033,0.469,0.814,0.791,�k��,6.6,�L
2018/03/22,08:30,0.802,1.310,0.834,1.540,1.021,0.467,0.814,0.789,-,CALM,�L
2018/03/22,08:40,0.800,1.307,0.831,1.537,1.020,0.464,0.813,0.788,�k�k��,11.6,�L
2018/03/22,08:50,0.798,1.308,0.830,1.538,1.019,0.466,0.814,0.789,�k,11.1,�L
2018/03/22,09:00,0.800,1.309,0.830,1.534,1.017,0.463,0.812,0.788,�k�k��,8.9,�L
2018/03/22,09:10,0.796,1.300,0.824,1.529,1.012,0.462,0.812,0.788,�k,11.3,�L
2018/03/22,09:20,0.801,1.307,0.826,1.533,1.013,0.463,0.814,0.790,�k,13.3,�L
2018/03/22,09:30,0.804,1.313,0.828,1.538,1.016,0.464,0.814,0.790,�k,13.3,�L
2018/03/22,09:40,0.807,1.317,0.830,1.543,1.017,0.465,0.815,0.791,�k�k��,12.5,�L
2018/03/22,09:50,0.806,1.316,0.829,1.542,1.014,0.464,0.814,0.791,�k�k��,13.9,�L
2018/03/22,10:00,0.805,1.316,0.829,1.537,1.016,0.466,0.815,0.791,�k�k��,14.6,�L
2018/03/22,10:10,0.805,1.320,0.831,1.544,1.019,0.466,0.817,0.791,�k�k��,14.6,�L
2018/03/22,10:20,0.808,1.325,0.832,1.550,1.021,0.467,0.819,0.795,�k�k��,13.8,�L
2018/03/22,10:30,0.810,1.328,0.836,1.558,1.024,0.468,0.820,0.795,�k�k��,13.0,�L
2018/03/22,10:40,0.813,1.334,0.835,1.561,1.027,0.468,0.821,0.795,�k�k��,14.4,�L
2018/03/22,10:50,0.815,1.335,0.837,1.562,1.028,0.470,0.821,0.796,�k��,12.1,�L
2018/03/22,11:00,0.813,1.339,0.838,1.567,1.031,0.468,0.822,0.798,�k��,15.5,�L
2018/03/22,11:10,0.818,1.340,0.840,1.567,1.035,0.468,0.824,0.799,�k�k��,12.5,��
2018/03/22,11:20,0.819,1.344,0.843,1.572,1.034,0.471,0.823,0.799,�k�k��,11.7,��
2018/03/22,11:30,0.819,1.348,0.845,1.572,1.036,0.470,0.824,0.797,�k�k��,11.8,��
2018/03/22,11:40,0.821,1.350,0.848,1.574,1.037,0.470,0.824,0.799,�k��,11.6,��
2018/03/22,11:50,0.821,1.352,0.843,1.579,1.040,0.470,0.824,0.800,�k��,11.6,��
2018/03/22,12:00,0.821,1.353,0.851,1.580,1.041,0.470,0.825,0.800,�k�k��,11.3,��
2018/03/22,12:10,0.822,1.354,0.849,1.583,1.044,0.471,0.825,0.797,�k��,11.3,��
2018/03/22,12:20,0.822,1.355,0.851,1.583,1.044,0.470,0.825,0.798,�k�k��,12.5,�L
2018/03/22,12:30,0.823,1.354,0.851,1.587,1.042,0.471,0.824,0.797,�k�k��,11.4,��
2018/03/22,12:40,0.824,1.353,0.851,1.587,1.043,0.471,0.825,0.798,�k�k��,11.3,��
2018/03/22,12:50,0.823,1.357,0.853,1.588,1.044,0.471,0.826,0.799,�k�k��,9.3,��
2018/03/22,13:00,0.822,1.357,0.853,1.592,1.043,0.471,0.825,0.800,�k�k��,9.2,��
2018/03/22,13:10,0.822,1.356,0.854,1.589,1.045,0.471,0.827,0.798,�k�k��,10.5,��
2018/03/22,13:20,0.825,1.360,0.853,1.592,1.047,0.472,0.826,0.799,�k�k��,7.9,��
2018/03/22,13:30,0.825,1.360,0.853,1.594,1.047,0.471,0.826,0.802,�k��,6.8,��
2018/03/22,13:40,0.824,1.361,0.853,1.593,1.048,0.472,0.827,0.799,�k��,9.6,��
2018/03/22,13:50,0.824,1.360,0.854,1.594,1.050,0.472,0.828,0.802,�k��,10.2,��
2018/03/22,14:00,0.823,1.361,0.854,1.596,1.049,0.472,0.829,0.801,�k��,9.3,��
2018/03/22,14:10,0.826,1.361,0.854,1.598,1.050,0.471,0.830,0.802,�k��,10.0,�L
2018/03/22,14:20,0.826,1.365,0.855,1.597,1.050,0.472,0.828,0.805,�k��,9.1,�L
2018/03/22,14:30,0.827,1.363,0.855,1.600,1.051,0.471,0.829,0.803,�k��,8.8,��
2018/03/22,14:40,0.827,1.365,0.856,1.598,1.050,0.473,0.829,0.804,�k��,10.0,��
2018/03/22,14:50,0.825,1.368,0.854,1.601,1.053,0.472,0.831,0.804,�k��,8.4,��
2018/03/22,15:00,0.825,1.367,0.855,1.601,1.053,0.473,0.830,0.804,�k��,9.2,��
2018/03/22,15:10,0.827,1.366,0.857,1.602,1.054,0.473,0.830,0.805,�k��,7.6,��
2018/03/22,15:20,0.825,1.370,0.857,1.603,1.055,0.472,0.830,0.804,�k�k��,7.2,��
2018/03/22,15:30,0.827,1.371,0.858,1.602,1.059,0.474,0.830,0.805,�k�k��,5.9,��
2018/03/22,15:40,0.827,1.370,0.857,1.605,1.059,0.475,0.831,0.803,�k��,7.7,��
2018/03/22,15:50,0.827,1.370,0.857,1.605,1.057,0.474,0.834,0.804,�k��,7.8,��
2018/03/22,16:00,0.829,1.370,0.859,1.605,1.059,0.474,0.832,0.807,�k��,7.1,��
2018/03/22,16:10,0.829,1.368,0.859,1.608,1.056,0.475,0.831,0.805,�k��,5.3,��
2018/03/22,16:20,0.828,1.373,0.858,1.607,1.060,0.476,0.833,0.804,�k��,8.1,��
2018/03/22,16:30,0.828,1.372,0.860,1.607,1.059,0.475,0.832,0.805,��,6.1,��
2018/03/22,16:40,0.826,1.371,0.859,1.611,1.060,0.476,0.834,0.806,���k��,8.0,��
2018/03/22,16:50,0.827,1.374,0.859,1.608,1.059,0.474,0.833,0.806,���k��,8.3,��
2018/03/22,17:00,0.827,1.375,0.859,1.608,1.061,0.475,0.833,0.804,���k��,6.8,��
2018/03/22,17:10,0.825,1.373,0.862,1.607,1.061,0.475,0.833,0.805,���k��,4.2,��
2018/03/22,17:20,0.827,1.376,0.861,1.607,1.059,0.475,0.833,0.805,���k��,3.3,��
2018/03/22,17:30,0.825,1.374,0.860,1.610,1.059,0.475,0.834,0.805,�k��,3.8,��
2018/03/22,17:40,0.829,1.378,0.858,1.610,1.059,0.476,0.832,0.805,�k��,3.6,��
2018/03/22,17:50,0.827,1.375,0.861,1.612,1.059,0.474,0.832,0.804,�k��,7.0,��
2018/03/22,18:00,0.827,1.375,0.861,1.612,1.061,0.474,0.833,0.806,�k��,7.2,��
2018/03/22,18:10,0.828,1.375,0.862,1.610,1.060,0.474,0.833,0.807,�k��,8.0,��
2018/03/22,18:20,0.828,1.378,0.862,1.608,1.065,0.474,0.833,0.807,�k�k��,7.0,��
2018/03/22,18:30,0.827,1.375,0.861,1.612,1.063,0.473,0.833,0.806,�k�k��,6.8,��
2018/03/22,18:40,0.829,1.377,0.861,1.611,1.064,0.474,0.835,0.805,�k�k��,6.7,��
2018/03/22,18:50,0.830,1.379,0.858,1.612,1.065,0.475,0.834,0.805,�k�k��,6.8,��
2018/03/22,19:00,0.831,1.378,0.860,1.613,1.067,0.474,0.835,0.805,�k�k��,5.8,��
2018/03/22,19:10,0.828,1.377,0.862,1.611,1.065,0.474,0.836,0.805,�k�k��,6.1,��
2018/03/22,19:20,0.826,1.378,0.861,1.610,1.065,0.474,0.834,0.805,�k�k��,5.6,��
2018/03/22,19:30,0.828,1.379,0.860,1.614,1.065,0.474,0.835,0.804,�k�k��,4.4,��
2018/03/22,19:40,0.828,1.376,0.861,1.614,1.066,0.473,0.835,0.805,�k�k��,4.9,��
2018/03/22,19:50,0.827,1.378,0.861,1.611,1.065,0.474,0.835,0.805,�k�k��,5.3,��
2018/03/22,20:00,0.828,1.377,0.861,1.614,1.066,0.474,0.835,0.805,�k�k��,5.5,��
2018/03/22,20:10,0.828,1.375,0.863,1.614,1.069,0.475,0.836,0.806,�k�k��,6.1,��
2018/03/22,20:20,0.826,1.375,0.862,1.614,1.067,0.473,0.835,0.805,�k�k��,6.2,��
2018/03/22,20:30,0.829,1.379,0.863,1.613,1.068,0.474,0.835,0.804,�k,5.6,��
2018/03/22,20:40,0.829,1.376,0.862,1.612,1.066,0.476,0.835,0.804,�k,5.3,��
2018/03/22,20:50,0.827,1.376,0.863,1.614,1.068,0.474,0.833,0.805,�k,4.6,��
2018/03/22,21:00,0.829,1.378,0.860,1.610,1.066,0.472,0.835,0.804,�k�k��,4.5,��
2018/03/22,21:10,0.826,1.377,0.861,1.613,1.068,0.474,0.833,0.806,�k�k��,4.5,��
2018/03/22,21:20,0.826,1.377,0.861,1.611,1.068,0.473,0.835,0.804,�k�k��,3.2,��
2018/03/22,21:30,0.827,1.375,0.861,1.612,1.067,0.474,0.833,0.804,�k�k��,2.6,��
2018/03/22,21:40,0.828,1.377,0.861,1.610,1.068,0.472,0.834,0.805,�k�k��,2.3,��
2018/03/22,21:50,0.825,1.377,0.861,1.611,1.065,0.473,0.836,0.806,�k�k��,3.7,��
2018/03/22,22:00,0.827,1.379,0.860,1.611,1.067,0.475,0.835,0.804,�k�k��,7.1,��
2018/03/22,22:10,0.825,1.377,0.858,1.612,1.068,0.473,0.834,0.804,�k,7.4,��
2018/03/22,22:20,0.826,1.378,0.861,1.614,1.069,0.473,0.835,0.804,�k,7.9,��
2018/03/22,22:30,0.826,1.379,0.861,1.613,1.069,0.472,0.834,0.805,�k,7.5,��
2018/03/22,22:40,0.826,1.378,0.859,1.612,1.070,0.473,0.837,0.804,�k,8.8,��
2018/03/22,22:50,0.824,1.376,0.861,1.613,1.072,0.473,0.835,0.805,�k,7.5,��
2018/03/22,23:00,0.829,1.378,0.861,1.613,1.070,0.473,0.834,0.804,�k,5.7,��
2018/03/22,23:10,0.825,1.377,0.859,1.613,1.071,0.473,0.835,0.805,�k,5.9,��
2018/03/22,23:20,0.826,1.380,0.860,1.616,1.071,0.472,0.834,0.803,�k,4.6,��
2018/03/22,23:30,0.826,1.378,0.862,1.614,1.071,0.474,0.834,0.803,�k,4.6,��
2018/03/22,23:40,0.827,1.380,0.862,1.616,1.072,0.473,0.835,0.805,�k,4.9,��
2018/03/22,23:50,0.827,1.378,0.861,1.610,1.070,0.473,0.835,0.804,�k,4.8,��
